Vorticity
nan nan nan nan nan nan nan nan nan nan nan nan nan nan nan nan nan nan nan nan nan nan nan nan nan nan nan nan nan nan nan nan nan nan nan nan nan nan nan nan nan nan nan nan nan
nan 9 11 8 7 8 7 8 7 7 7 8 8 8 8 12 15 10 5 4 0 4 7 6 8 10 8 9 7 6 6 11 7 6 8 14 5 4 4 3 10 5 9 12 nan
nan 10 9 8 8 9 9 8 7 7 9 8 8 9 10 12 11 21 20 11 8 7 5 6 8 9 7 5 9 8 6 7 8 7 7 8 9 5 -1 5 10 8 7 5 nan
nan 7 8 8 8 8 9 10 10 10 10 9 9 10 12 10 7 1 4 21 19 16 17 5 6 7 10 5 6 7 10 4 2 10 10 7 4 5 8 2 3 16 10 7 nan
nan 9 8 7 8 8 9 12 14 10 10 10 10 11 10 6 7 -3 -3 8 21 28 16 5 7 4 5 7 8 7 7 9 5 8 6 5 4 12 15 3 4 16 14 6 nan
nan 9 7 7 9 10 13 11 13 16 16 8 13 9 5 4 9 12 14 6 2 22 19 6 6 8 6 8 6 7 8 6 11 6 4 3 5 17 17 9 5 13 13 8 nan
nan 8 6 7 10 11 11 12 15 23 19 6 11 8 6 7 3 5 11 14 6 10 8 13 11 9 6 10 10 8 12 7 9 8 8 10 3 9 10 11 4 2 9 11 nan
nan 8 8 7 11 10 8 14 20 25 17 13 8 8 6 11 8 4 9 9 7 8 9 11 15 11 6 8 14 8 5 11 11 9 14 14 5 6 3 8 4 2 6 7 nan
nan 8 9 10 12 9 9 17 23 20 8 10 8 7 6 11 12 14 15 9 5 6 10 9 9 10 9 8 6 10 7 6 10 9 10 5 15 9 9 7 4 8 3 6 nan
nan 7 8 11 11 9 17 15 9 10 9 6 6 7 12 10 7 12 11 7 5 4 12 11 8 9 7 14 7 9 7 5 8 6 7 6 8 5 9 9 9 5 7 7 nan
nan 8 9 11 11 15 18 10 4 7 8 4 6 6 5 8 9 9 8 5 6 6 11 12 9 14 8 0 6 13 13 6 3 7 10 7 5 4 4 9 11 9 9 7 nan
nan 8 10 11 13 18 14 10 9 7 6 10 9 8 5 7 7 8 10 6 9 7 10 11 14 10 12 1 8 10 5 2 10 12 8 14 5 6 8 5 9 9 10 9 nan
nan 9 12 15 17 11 11 8 6 7 7 9 11 10 11 12 8 7 9 6 8 9 10 6 13 12 12 4 1 8 11 6 9 14 7 9 12 10 7 5 6 8 9 12 nan
nan 12 15 18 15 8 7 8 9 8 5 8 9 8 8 10 7 11 11 8 9 12 6 4 7 12 18 12 4 5 10 7 8 12 11 5 11 14 12 7 4 5 7 9 nan
nan 14 20 20 8 7 10 9 9 9 9 11 7 7 12 10 7 6 10 15 11 8 4 12 10 9 16 13 6 6 13 10 5 7 8 6 11 11 16 16 12 6 6 9 nan
nan 17 18 14 9 8 9 10 10 10 10 10 10 8 9 8 9 7 6 7 13 14 6 9 14 16 3 13 14 7 3 8 11 9 11 12 6 6 11 9 14 14 13 11 nan
nan 19 15 9 11 10 6 7 12 6 6 8 13 11 9 6 10 12 7 7 7 7 10 10 9 9 10 7 8 11 7 7 8 8 11 14 6 5 6 10 16 18 12 10 nan
nan 20 13 10 12 8 5 6 10 8 6 11 6 8 14 8 8 12 8 9 7 6 11 13 6 3 14 9 9 8 8 10 10 8 12 9 6 9 11 14 21 19 11 7 nan
nan 15 11 13 9 6 8 9 7 10 7 8 12 13 10 9 8 8 7 9 18 10 -1 8 9 11 11 9 11 11 8 8 9 8 11 6 4 11 14 16 17 11 9 9 nan
nan 10 11 13 8 6 9 6 10 8 9 7 8 8 9 12 13 10 6 8 20 14 6 5 7 11 9 4 8 17 12 4 9 10 6 9 11 13 8 11 9 7 6 8 nan
nan 11 12 9 6 9 10 7 10 11 12 3 5 7 9 13 11 6 8 14 11 7 15 9 8 10 8 11 8 6 5 7 12 11 8 10 10 15 11 13 7 6 10 8 nan
nan 7 11 8 9 9 5 10 11 13 10 7 9 8 5 10 13 13 10 4 8 15 11 6 9 11 9 11 9 8 10 9 8 9 7 10 5 13 19 14 9 11 8 8 nan
nan 7 7 11 7 8 9 11 10 9 7 12 9 10 8 11 11 10 8 6 10 15 11 9 7 8 7 11 15 10 12 6 5 13 13 5 6 9 18 14 11 9 8 9 nan
nan 9 9 9 10 9 9 9 10 12 10 11 9 9 11 9 12 12 8 8 9 11 10 11 12 11 8 10 12 13 12 9 4 6 13 6 8 10 11 9 8 9 10 9 nan
nan 13 10 5 8 10 10 8 8 11 11 10 12 6 11 9 8 10 9 9 8 9 13 11 10 9 10 11 10 13 11 11 4 6 7 10 12 11 10 9 10 7 8 8 nan
nan 8 10 10 11 14 10 9 7 9 7 6 7 8 12 12 9 5 9 11 8 9 9 11 12 7 7 10 9 9 12 9 7 9 8 9 11 14 8 8 12 10 8 7 nan
nan nan nan nan nan nan nan nan nan nan nan nan nan nan nan nan nan nan nan nan nan nan nan nan nan nan nan nan nan nan nan nan nan nan nan nan nan nan nan nan nan nan nan nan nan
CAPE
23 56 55 52 40 54 52 54 51 50 31 44 35 37 29 41 53 9 1 0 0 0 0 0 0 0 68 139 199 0 11 2 0 0 0 0 0 0 0 0 0 1 313 639 448
42 49 56 43 41 38 49 50 54 62 65 51 48 40 37 47 30 21 0 26 5 23 1 0 5 0 45 84 167 149 0 0 0 0 0 0 0 0 0 0 0 777 756 688 489
47 51 50 50 49 47 53 58 67 65 80 89 74 66 50 32 7 0 0 52 55 47 6 0 51 17 54 43 49 18 0 0 0 0 0 1 0 0 0 0 0 422 1082 691 540
35 59 44 36 39 49 67 98 110 119 71 117 91 67 29 0 0 14 63 37 66 0 4 0 34 50 43 51 12 6 0 0 0 0 0 0 0 0 0 0 0 2 891 648 561
34 43 40 33 27 55 86 111 189 214 153 171 131 57 7 2 0 0 0 1 0 18 0 0 28 54 32 11 10 2 0 0 0 0 0 0 0 0 0 0 0 0 546 619 456
41 44 35 53 61 70 80 97 151 230 173 92 113 88 0 0 0 0 0 0 0 0 39 2 37 29 31 1 2 13 1 0 0 0 0 0 0 0 2 24 0 0 90 425 500
35 36 38 50 54 59 33 105 155 190 156 162 92 57 1 0 0 0 0 4 0 0 0 2 21 69 3 0 0 8 7 1 0 0 0 0 0 0 0 0 0 0 0 0 23
38 33 29 49 48 26 22 41 101 130 131 116 133 43 0 0 0 0 0 0 0 1 0 0 1 13 20 4 0 2 7 17 0 0 0 0 0 0 0 0 0 0 0 0 0
36 36 53 40 43 21 27 17 69 89 106 75 6 9 0 59 21 1 0 0 16 9 2 0 28 55 34 20 11 20 0 0 0 0 0 0 0 0 0 0 0 0 0 0 0
27 35 50 40 38 21 2 6 7 11 16 24 8 1 0 12 4 0 0 18 50 16 0 1 28 64 27 2 0 7 10 0 0 0 0 0 0 0 0 0 0 0 0 0 0
32 37 45 38 23 17 0 0 0 0 0 2 3 0 3 0 0 1 3 1 2 0 4 41 22 4 0 0 2 0 6 1 0 0 0 0 0 0 0 0 0 0 0 0 0
26 33 34 18 19 0 0 0 0 0 0 0 0 0 0 0 0 0 11 11 5 0 3 2 5 8 3 0 2 0 0 0 0 0 0 0 0 0 0 0 0 0 0 0 0
23 22 24 9 10 0 0 0 0 0 0 0 0 0 3 0 0 0 17 1 0 1 2 4 0 10 18 1 2 1 0 0 0 0 0 0 0 0 0 0 0 0 0 0 0
17 14 11 5 0 0 0 0 0 0 0 8 4 0 13 0 1 14 10 2 0 1 11 7 0 0 1 9 0 10 0 0 0 0 0 0 0 0 0 0 0 0 0 0 0
8 4 4 0 0 0 0 0 0 0 0 8 6 3 3 1 0 19 0 10 1 0 0 0 0 2 9 3 0 1 4 1 0 1 0 0 0 0 0 0 0 0 0 0 0
7 1 0 0 0 0 0 0 0 0 0 5 9 4 4 3 0 28 17 2 0 17 5 0 15 5 13 0 1 0 0 0 3 10 5 0 0 0 0 0 0 0 0 0 0
1 0 0 0 0 0 0 0 0 0 0 0 10 5 2 9 9 8 5 1 3 0 7 12 18 3 2 0 0 0 0 0 7 3 0 0 0 0 0 0 0 0 0 0 0
0 0 0 0 0 0 0 0 0 0 0 0 4 3 4 14 3 15 9 7 1 8 42 25 3 4 0 0 1 0 0 0 0 0 0 0 0 0 0 0 0 0 0 0 0
0 0 0 0 0 0 0 0 0 0 0 1 1 0 3 13 6 12 2 4 2 2 7 0 5 2 0 0 0 1 7 0 0 0 0 0 0 0 0 0 0 0 0 0 0
0 0 0 0 0 0 0 0 0 0 0 2 0 1 10 11 14 19 7 0 0 0 0 0 8 3 5 0 0 0 0 2 0 0 0 0 0 0 0 0 0 0 0 0 0
0 0 0 0 0 0 0 0 0 0 0 0 0 0 0 1 0 0 0 0 0 0 0 0 0 15 0 2 7 17 9 0 0 0 0 0 0 0 0 0 0 0 0 0 0
0 0 0 0 0 0 0 0 0 0 0 0 0 0 0 0 0 0 0 0 0 0 0 0 0 3 4 0 0 0 1 0 0 0 0 0 0 0 0 0 0 0 0 0 0
0 0 0 0 0 0 0 0 0 1 0 0 0 0 0 0 0 0 0 0 0 0 0 0 0 0 3 2 1 8 9 5 0 0 0 0 0 0 0 0 0 0 0 0 0
0 0 0 0 0 0 0 0 4 5 0 0 0 0 0 0 0 0 0 0 0 0 0 0 0 0 0 0 0 0 0 0 0 0 0 0 0 0 0 0 0 0 0 0 0
0 0 0 0 0 0 0 0 0 4 0 0 0 0 0 0 0 0 0 0 0 0 0 0 0 0 0 0 0 0 0 0 0 0 0 0 0 0 0 0 0 0 0 0 0
0 0 0 0 0 0 0 0 0 0 5 6 3 0 0 0 0 0 0 0 0 0 0 0 0 0 0 0 0 0 0 0 0 0 0 0 0 0 0 0 0 0 0 0 0
0 0 4 0 0 0 0 0 0 0 0 1 7 0 0 0 0 0 0 0 0 0 0 0 0 0 0 0 0 0 0 0 0 0 0 0 0 0 0 0 0 0 0 0 0